{"data":{"norad_id":68366,"intl_designator":"2026-061G","name":"RASSVET-3 7","alt_names":[],"object_type":"PAYLOAD","status":"ACTIVE","operator":null,"country":"CIS","launch_date":"2026-03-23","launch_site_code":"PLMSC","launch_vehicle":null,"mission":null,"orbit_class":"UNKNOWN","rcs_meters":null,"size_class":null,"mass_kg":null,"dimensions":null,"purposes":[],"wikipedia_slug":null,"has_3d_model":false,"image_url":null,"decayed_at":null,"tle_current":{"epoch":"2026-09-20T00:50:00.087072Z","epoch_age_seconds":112349,"freshness":"FRESH","line1":"1 68366U 26061G   26263.03472323  .00002002  00000+0  95837-4 0  9996","line2":"2 68366  82.2910 277.3278 0002143 150.4831 209.6523 15.18429778 27841","mean_motion":15.18429778,"eccentricity":0.0002143,"inclination_deg":82.291,"raan_deg":277.3278,"arg_perigee_deg":150.4831,"mean_anomaly_deg":209.6523,"bstar":9.5837e-5,"rev_number":2784,"period_min":94.834810332599,"perigee_km":509.10939867313,"apogee_km":512.06190520175,"semimajor_km":6888.7226519374,"source":"CELESTRAK","updated_at":"2026-09-20T09:00:24.163037Z"}}}